Seville, Spain

10:51 PM CET on February 25, 2017 (GMT +0100)
San Pablo

Weather History for LEZL - November, 2012

Change the Weather History Date:

Wednesday, November 28, 2012

  Actual Average Record
Temperature  
Mean Temperature 50 °F -  
Max Temperature 57 °F 60 °F 78 °F (2000)
Min Temperature 42 °F 44 °F 35 °F (2008)
Degree Days  
Heating Degree Days 16    
Moisture  
Dew Point 38 °F    
Average Humidity 65    
Maximum Humidity 87    
Minimum Humidity 41    
Precipitation  
Precipitation 0.00 in - - ()
Sea Level Pressure  
Sea Level Pressure 29.93 in    
Wind  
Wind Speed 4 mph ()    
Max Wind Speed 9 mph    
Max Gust Speed -    
Averages and records for this station are not official NWS values.
T = Trace of Precipitation, MM = Missing Value Source: Averaged Metar Reports

Daily Weather History Graph

Daily Weather History Graph

Search for Another Location

Airport or City:

Trip Planner

Search our weather history database for the weather conditions in past years. The results will help you decide how hot, cold, wet, or windy it might be!

Date:

Astronomy

Nov. 28, 2012 Rise Set
Actual Time 8:16 AM CET 6:06 PM CET
Civil Twilight 7:48 AM CET 6:35 PM CET
Nautical Twilight 7:15 AM CET 7:07 PM CET
Astronomical Twilight 6:44 AM CET 7:38 PM CET
Moon 6:10 PM CET (11/28) 8:02 AM CET (11/28)
Length of Visible Light 10h 47m
Length of Day
9h 49m
Full, 100% of the Moon is Illuminated
Nov 28
Full
Nov 28
Full
Dec 6
Last Quarter
Dec 13
New
Dec 20
First Quarter

Hourly Weather History & Observations

Time (CET) Temp. Windchill Dew Point Humidity Pressure Visibility Wind Dir Wind Speed Gust Speed Precip Events Conditions
12:00 AM 48.2 °F - 39.2 °F 71% 29.89 in - West 6.9 mph - N/A   Clear
12:30 AM 48.2 °F - 37.4 °F 66% 29.89 in - West 5.8 mph - N/A   Clear
4:30 AM 44.6 °F 43.1 °F 39.2 °F 81% 29.86 in - West 3.5 mph - N/A   Clear
5:00 AM 44.6 °F 43.1 °F 39.2 °F 81% 29.86 in - West 3.5 mph - N/A   Clear
5:30 AM 44.6 °F - 39.2 °F 81% 29.86 in - WNW 2.3 mph - N/A   Clear
6:00 AM 44.6 °F - 39.2 °F 81% 29.86 in - NNW 1.2 mph - N/A   Clear
6:30 AM 44.6 °F 43.1 °F 39.2 °F 81% 29.89 in - West 3.5 mph - N/A   Clear
7:00 AM 42.8 °F 41.1 °F 39.2 °F 87% 29.89 in - West 3.5 mph - N/A   Clear
7:30 AM 44.6 °F - 37.4 °F 76% 29.89 in - Variable 2.3 mph - N/A   Clear
8:00 AM 44.6 °F - 37.4 °F 76% 29.89 in - Variable 1.2 mph - N/A   Clear
9:00 AM 44.6 °F - 39.2 °F 81% 29.92 in - Calm Calm - N/A   Clear
9:30 AM 46.4 °F - 39.2 °F 76% 29.92 in - Calm Calm - N/A   Clear
10:00 AM 48.2 °F - 39.2 °F 71% 29.95 in - WNW 5.8 mph - N/A   Clear
10:30 AM 48.2 °F - 39.2 °F 71% 29.95 in - WNW 4.6 mph - N/A   Clear
11:00 AM 50.0 °F - 39.2 °F 66% 29.98 in - WNW 6.9 mph - N/A   Clear
11:30 AM 50.0 °F - 37.4 °F 62% 29.98 in - NNW 3.5 mph - N/A   Clear
12:00 PM 50.0 °F - 35.6 °F 58% 29.98 in - Variable 3.5 mph - N/A   Clear
12:30 PM 51.8 °F - 37.4 °F 58% 29.98 in - NW 3.5 mph - N/A   Clear
1:00 PM 51.8 °F - 37.4 °F 58% 29.95 in - West 3.5 mph - N/A   Clear
1:30 PM 53.6 °F - 39.2 °F 58% 29.95 in - WNW 3.5 mph - N/A   Clear
2:00 PM 53.6 °F - 37.4 °F 54% 29.95 in - West 2.3 mph - N/A   Clear
2:30 PM 55.4 °F - 37.4 °F 51% 29.92 in - Variable 2.3 mph - N/A   Clear
3:00 PM 57.2 °F - 35.6 °F 44% 29.92 in - West 5.8 mph - N/A   Clear
3:30 PM 57.2 °F - 37.4 °F 48% 29.92 in - West 5.8 mph - N/A   Clear
4:00 PM 57.2 °F - 37.4 °F 48% 29.92 in - WSW 6.9 mph - N/A   Clear
4:30 PM 57.2 °F - 33.8 °F 41% 29.92 in - WSW 8.1 mph - N/A   Clear
5:00 PM 57.2 °F - 37.4 °F 48% 29.92 in - WSW 8.1 mph - N/A   Clear
5:30 PM 57.2 °F - 39.2 °F 51% 29.92 in - WSW 4.6 mph - N/A   Clear
6:00 PM 55.4 °F - 37.4 °F 51% 29.92 in - WSW 4.6 mph - N/A   Clear
6:30 PM 51.8 °F - 37.4 °F 58% 29.92 in - West 6.9 mph - N/A   Clear
7:00 PM 51.8 °F - 37.4 °F 58% 29.92 in - West 8.1 mph - N/A   Clear
7:30 PM 51.8 °F - 39.2 °F 62% 29.95 in - WNW 9.2 mph - N/A   Clear
8:00 PM 50.0 °F - 39.2 °F 66% 29.95 in - WNW 6.9 mph - N/A   Clear
8:30 PM 50.0 °F - 37.4 °F 62% 29.95 in - WNW 4.6 mph - N/A   Clear
9:00 PM 50.0 °F - 37.4 °F 62% 29.95 in - Calm Calm - N/A   Clear
9:30 PM 50.0 °F - 37.4 °F 62% 29.95 in - West 2.3 mph - N/A   Clear
10:00 PM 48.2 °F - 37.4 °F 66% 29.98 in - Variable 1.2 mph - N/A   Clear
10:30 PM 46.4 °F - 39.2 °F 76% 29.95 in - Variable 2.3 mph - N/A   Clear
11:00 PM 48.2 °F - 39.2 °F 71% 29.98 in - SSW 3.5 mph - N/A   Clear
11:30 PM 48.2 °F - 39.2 °F 71% 29.98 in - SW 5.8 mph - N/A   Clear